Weather History for Houghton Lake, MI

Change the Weather History Date:

Monday, April 14, 2014

  Actual Average Record
Temperature  
Mean Temperature 39 °F 42 °F  
Max Temperature 56 °F 54 °F 80 °F (1941)
Min Temperature 22 °F 31 °F 8 °F (1940)
Degree Days  
Heating Degree Days 26 23  
Month to date heating degree days 358 364  
Since 1 July heating degree days 8212 7349  
Cooling Degree Days 0 0  
Month to date cooling degree days 0 0  
Year to date cooling degree days 0 0  
Moisture  
Dew Point 34 °F    
Average Humidity 85    
Maximum Humidity 100    
Minimum Humidity 70    
Precipitation  
Precipitation 1.46 in 0.08 in 1.46 in (2014)
Month to date precipitation 4.28 1.19  
Year to date precipitation 8.23 5.75  
Snow  
Snow 3.00 in 0.10 in 3.50 in (1928)
Month to date snowfall 3.5 2.6  
Since 1 July snowfall 61.9 65.4  
Snow Depth 0.00 in    
Sea Level Pressure  
Sea Level Pressure 29.57 in    
Wind  
Wind Speed 13 mph (NW)    
Max Wind Speed 26 mph    
Max Gust Speed 34 mph    
Visibility 4 miles    
Events Rain , Snow    
T = Trace of Precipitation, MM = Missing Value Source: NWS Daily Summary

Daily Weather History Graph

Daily Weather History Graph

Search for Another Location

Airport:

Trip Planner

Search our weather history database for the weather conditions in past years. The results will help you decide how hot, cold, wet, or windy it might be!

Date:

Astronomy

Apr. 14, 2014 Rise Set
Actual Time 6:56 AM EDT 8:22 PM EDT
Civil Twilight 6:26 AM EDT 8:52 PM EDT
Nautical Twilight 5:50 AM EDT 9:28 PM EDT
Astronomical Twilight 5:11 AM EDT 10:07 PM EDT
Moon 7:59 PM EDT (4/14) 6:30 AM EDT (4/14)
Length of Visible Light 14h 25m
Length of Day
13h 25m
Full, 100% of the Moon is Illuminated
Apr 14
Full
Apr 15
Full
Apr 22
Last Quarter
Apr 29
New
May 6
First Quarter

Hourly Weather History & Observations

Time (EDT) Temp. Windchill Dew Point Humidity Pressure Visibility Wind Dir Wind Speed Gust Speed Precip Events Conditions
12:16 AM 52.0 °F - 50.0 °F 93% 29.56 in 7.0 mi ESE 16.1 mph 21.9 mph 0.02 in Rain Rain
12:26 AM 51.1 °F - 50.0 °F 96% 29.55 in 5.0 mi ESE 12.7 mph - 0.05 in Rain Rain
12:53 AM 48.9 °F - 48.0 °F 97% 29.55 in 6.0 mi ESE 17.3 mph - 0.13 in Rain Rain
1:39 AM 46.9 °F - 46.0 °F 97% 29.52 in 6.0 mi ENE 8.1 mph - 0.13 in Rain Light Rain
1:53 AM 46.0 °F 40.2 °F 45.0 °F 96% 29.52 in 5.0 mi East 12.7 mph - 0.20 in Rain Rain
2:29 AM 46.0 °F 40.6 °F 45.0 °F 96% 29.47 in 7.0 mi East 11.5 mph - 0.07 in Rain Light Rain
2:49 AM 46.4 °F 41.1 °F 46.4 °F 100% 29.44 in 10.0 mi East 11.5 mph - 0.09 in Rain Light Rain
2:50 AM 46.4 °F 41.5 °F 46.4 °F 100% 29.44 in 10.0 mi East 10.4 mph - 0.09 in Rain Light Rain
2:53 AM 46.9 °F - 46.0 °F 97% 29.45 in 10.0 mi ESE 8.1 mph - 0.09 in Rain Light Rain
3:51 AM 50.0 °F - 48.2 °F 94% 29.40 in 3.0 mi SSE 12.7 mph 19.6 mph 0.13 in Rain Rain
3:53 AM 50.0 °F - 48.9 °F 96% 29.40 in 2.5 mi SE 13.8 mph 19.6 mph 0.13 in Rain Rain
4:03 AM 51.1 °F - 50.0 °F 96% 29.40 in 3.0 mi South 11.5 mph - 0.05 in Rain Rain
4:21 AM 52.0 °F - 51.1 °F 97% 29.38 in 8.0 mi South 9.2 mph - 0.05 in   Overcast
4:53 AM 53.6 °F - 51.8 °F 94% 29.35 in 5.0 mi South 10.4 mph - N/A Rain Light Rain
5:19 AM 54.0 °F - 53.1 °F 97% 29.32 in 5.0 mi SSE 12.7 mph - 0.03 in Rain Light Rain
5:49 AM 55.4 °F - 53.6 °F 94% 29.29 in 8.0 mi South 10.4 mph - 0.04 in Rain Light Rain
5:53 AM 55.0 °F - 54.0 °F 96% 29.29 in 7.0 mi South 11.5 mph - 0.04 in Rain Light Rain
6:13 AM 55.0 °F - 54.0 °F 96% 29.30 in 2.5 mi WSW 12.7 mph 25.3 mph 0.01 in Rain Light Rain
6:16 AM 54.0 °F - 53.1 °F 97% 29.30 in 1.5 mi WSW 9.2 mph 25.3 mph 0.08 in Rain Heavy Rain
6:26 AM 46.9 °F - 46.0 °F 97% 29.31 in 2.0 mi WNW 11.5 mph 20.7 mph 0.22 in Rain Rain
6:29 AM 46.9 °F - 46.0 °F 97% 29.31 in 3.0 mi WNW 10.4 mph - 0.23 in Rain Heavy Rain
6:43 AM 46.0 °F 41.4 °F 45.0 °F 96% 29.30 in 9.0 mi NW 9.2 mph - 0.27 in Rain Light Rain
6:51 AM 44.6 °F 40.7 °F 44.6 °F 100% 29.31 in 4.0 mi WNW 6.9 mph - 0.28 in Rain Rain
6:53 AM 45.0 °F 43.5 °F 44.1 °F 97% 29.32 in 3.0 mi Variable 3.5 mph - 0.30 in Rain Heavy Rain
6:59 AM 44.1 °F 38.6 °F 44.1 °F 100% 29.31 in 1.8 mi NW 10.4 mph - 0.05 in Rain Heavy Rain
7:14 AM 44.1 °F 41.5 °F 43.0 °F 96% 29.31 in 3.0 mi NNW 4.6 mph - 0.22 in Rain Rain
7:39 AM 41.0 °F 39.0 °F 39.9 °F 96% 29.32 in 4.0 mi Variable 3.5 mph - 0.27 in Rain Light Rain
7:50 AM 41.0 °F 36.4 °F 39.2 °F 93% 29.31 in 2.5 mi North 6.9 mph - 0.28 in Rain Rain
7:53 AM 41.0 °F 36.4 °F 39.9 °F 96% 29.33 in 2.5 mi NNW 6.9 mph - 0.29 in Rain Rain
7:58 AM 41.0 °F 35.8 °F 39.0 °F 93% 29.31 in 4.0 mi NNW 8.1 mph - 0.00 in Rain Light Rain
8:19 AM 39.9 °F 33.4 °F 39.0 °F 97% 29.33 in 1.8 mi NNW 10.4 mph - 0.04 in Rain Rain
8:23 AM 39.0 °F 31.4 °F 37.9 °F 96% 29.34 in 1.0 mi NW 12.7 mph - 0.09 in Rain Heavy Rain
8:33 AM 39.0 °F 32.8 °F 37.9 °F 96% 29.35 in 1.8 mi WNW 9.2 mph - 0.20 in Rain Rain
8:37 AM 39.0 °F 32.3 °F 37.9 °F 96% 29.35 in 3.0 mi NW 10.4 mph - 0.21 in Rain Rain
8:46 AM 39.0 °F 32.8 °F 37.0 °F 93% 29.35 in 10.0 mi NNW 9.2 mph - 0.21 in Rain Light Rain
8:53 AM 39.0 °F 31.8 °F 37.0 °F 93% 29.38 in 7.0 mi NNW 11.5 mph - 0.21 in   Overcast
9:07 AM 37.9 °F 30.9 °F 37.0 °F 97% 29.37 in 2.5 mi NW 10.4 mph - 0.01 in Rain Light Rain
9:11 AM 37.9 °F 32.1 °F 37.0 °F 97% 29.37 in 3.0 mi NNW 8.1 mph - 0.01 in Rain Light Rain
9:53 AM 37.9 °F 30.5 °F 36.0 °F 93% 29.42 in 4.0 mi NW 11.5 mph 20.7 mph 0.01 in   Overcast
10:08 AM 37.0 °F 28.1 °F 36.0 °F 96% 29.42 in 2.5 mi WNW 15.0 mph 21.9 mph N/A   Overcast
10:28 AM 36.0 °F 26.7 °F 34.0 °F 93% 29.45 in 1.8 mi NW 15.0 mph 26.5 mph 0.00 in   Overcast
10:37 AM 36.0 °F 26.0 °F 34.0 °F 93% 29.47 in 2.0 mi NW 17.3 mph 29.9 mph 0.00 in   Overcast
10:53 AM 36.0 °F 25.6 °F 34.0 °F 93% 29.52 in 2.5 mi NW 18.4 mph 27.6 mph 0.00 in   Overcast
11:04 AM 36.0 °F 25.6 °F 33.1 °F 89% 29.50 in 3.0 mi NW 18.4 mph 31.1 mph N/A   Overcast
11:41 AM 36.0 °F 25.3 °F 32.0 °F 86% 29.54 in 10.0 mi NNW 19.6 mph 29.9 mph N/A   Overcast
11:53 AM 37.0 °F 26.4 °F 32.0 °F 82% 29.58 in 10.0 mi NNW 20.7 mph 34.5 mph N/A   Overcast
12:53 PM 37.9 °F 28.2 °F 32.0 °F 79% 29.62 in 10.0 mi NNW 18.4 mph 27.6 mph N/A   Overcast
1:53 PM 37.4 °F 27.5 °F 30.2 °F 75% 29.62 in 10.0 mi North 18.4 mph 31.1 mph N/A   Overcast
2:53 PM 37.9 °F 27.6 °F 30.0 °F 73% 29.72 in 10.0 mi NW 20.7 mph 28.8 mph N/A   Overcast
3:53 PM 37.0 °F 27.7 °F 28.9 °F 73% 29.73 in 10.0 mi NW 16.1 mph 27.6 mph N/A   Overcast
4:53 PM 33.1 °F 23.0 °F 27.0 °F 78% 29.77 in 6.0 mi NW 15.0 mph 24.2 mph 0.00 in Snow Light Snow
5:53 PM 28.0 °F 13.6 °F 24.1 °F 85% 29.80 in 10.0 mi NW 24.2 mph 31.1 mph 0.00 in   Overcast
6:46 PM 27.0 °F 14.3 °F 21.9 °F 81% 29.78 in 10.0 mi North 17.3 mph 29.9 mph 0.00 in   Overcast
6:53 PM 27.0 °F 14.7 °F 21.9 °F 81% 29.83 in 10.0 mi NW 16.1 mph 24.2 mph 0.00 in   Overcast
7:41 PM 26.1 °F 15.0 °F 21.0 °F 81% 29.81 in 1.8 mi NW 12.7 mph 25.3 mph 0.00 in Snow Light Snow
7:46 PM 26.1 °F 14.0 °F 21.9 °F 84% 29.80 in 1.0 mi NNW 15.0 mph 25.3 mph 0.00 in Snow Light Snow
7:53 PM 26.1 °F 15.6 °F 21.9 °F 84% 29.84 in 0.8 mi NW 11.5 mph 21.9 mph 0.00 in Snow Light Snow
8:13 PM 25.0 °F 12.6 °F 21.0 °F 85% 29.81 in 1.2 mi NNW 15.0 mph - 0.01 in Snow Light Snow
8:26 PM 25.0 °F 13.1 °F 21.0 °F 85% 29.81 in 1.8 mi NNW 13.8 mph 21.9 mph 0.01 in Snow Light Snow
8:37 PM 25.0 °F 17.1 °F 21.9 °F 88% 29.81 in 1.0 mi NNW 6.9 mph - 0.02 in Snow Light Snow
8:44 PM 25.0 °F 14.2 °F 21.9 °F 88% 29.83 in 1.0 mi NW 11.5 mph - 0.02 in Snow Light Snow
8:50 PM 24.8 °F 12.9 °F 21.2 °F 86% 29.83 in 0.8 mi NW 13.8 mph - 0.02 in Snow Light Snow
8:53 PM 25.0 °F 13.1 °F 21.9 °F 88% 29.88 in 0.8 mi NW 13.8 mph - 0.02 in Snow Light Snow
9:18 PM 24.1 °F 14.4 °F 21.9 °F 91% 29.84 in 1.0 mi NW 9.2 mph - 0.02 in Snow Light Snow
9:43 PM 24.1 °F 13.7 °F 21.0 °F 88% 29.85 in 1.2 mi NNW 10.4 mph - 0.04 in Snow Light Snow
9:53 PM 24.1 °F 14.4 °F 21.0 °F 88% 29.90 in 1.2 mi NW 9.2 mph - 0.04 in Snow Light Snow
10:00 PM 24.1 °F 13.7 °F 21.0 °F 88% 29.85 in 1.0 mi NNW 10.4 mph - 0.00 in Snow Light Snow
10:07 PM 24.1 °F 13.7 °F 21.0 °F 88% 29.85 in 0.8 mi NW 10.4 mph - 0.01 in Snow Light Snow
10:20 PM 24.1 °F 14.4 °F 21.0 °F 88% 29.86 in 1.0 mi NW 9.2 mph 18.4 mph 0.01 in Snow Light Snow
10:27 PM 24.1 °F 15.2 °F 21.0 °F 88% 29.86 in 1.0 mi NW 8.1 mph - 0.02 in Snow Light Snow
10:35 PM 24.1 °F 13.7 °F 21.0 °F 88% 29.87 in 1.2 mi NW 10.4 mph - 0.03 in Snow Light Snow
10:48 PM 23.0 °F 13.9 °F 19.4 °F 86% 29.87 in 1.0 mi NW 8.1 mph - 0.03 in Snow Light Snow
10:53 PM 23.0 °F 14.7 °F 21.0 °F 92% 29.91 in 1.0 mi NW 6.9 mph - 0.03 in Snow Light Snow
11:00 PM 23.0 °F 10.6 °F 21.0 °F 92% 29.86 in 0.8 mi NW 13.8 mph 17.3 mph 0.00 in Snow Light Snow
11:11 PM 23.0 °F 13.1 °F 19.9 °F 88% 29.87 in 1.2 mi NW 9.2 mph - 0.01 in Snow Light Snow
11:24 PM 23.0 °F 11.7 °F 19.9 °F 88% 29.86 in 1.0 mi NNW 11.5 mph - 0.02 in Snow Light Snow
11:35 PM 23.0 °F 11.7 °F 19.9 °F 88% 29.86 in 0.8 mi NW 11.5 mph - 0.02 in Snow Light Snow
11:44 PM 23.0 °F 12.4 °F 19.9 °F 88% 29.86 in 1.2 mi NW 10.4 mph - 0.03 in Snow Light Snow
11:53 PM 23.0 °F 11.7 °F 19.0 °F 85% 29.89 in 1.5 mi NW 11.5 mph - 0.03 in Snow Light Snow